Other Public Products
Issued by NWS Grand Forks, ND

Home | Current Version | Previous Version | Text Only | Print | Product List | Glossary Off
Versions: 1 2 3 4 5 6 7 8 9 10 11 12 13 14 15 16 17 18 19 20 21 22 23 24 25 26 27 28 29 30 31 32 33 34 35 36 37 38 39 40 41 42 43 44 45 46 47 48 49 50

000
FPUS83 KFGF 231110
OPUFGF
PRAIRIE TO PINES WEATHER ROUNDUP
NATIONAL WEATHER SERVICE EASTERN NORTH DAKOTA/GRAND FORKS ND
500 AM CST SUN NOV 23 2014

 **SATELLITE DATA USED TO AUGMENT SKY COVER AT AUTOMATED STATIONS**
 *****  WEATHER ACROSS EASTERN NORTH DAKOTA  *****

CITY           SKY/WX    TMP DP  RH WIND       PRES   REMARKS
GRAND FORKS    CLOUDY    32  30  92 S7        29.37R
GRAND FORKS AF CLOUDY    34  33  95 W7        29.36R
GRAND CITY NWS   N/A     32 N/A N/A S9          N/A  WCI  24
BUXTON         NOT AVBL
DEVILS LAKE    MOCLDY    37  27  65 SW12      29.33S
FARGO          CLOUDY    34  31  88 S5        29.39S FOG
WAHPETON ARPT  CLOUDY    32  32 100 CALM      29.40S
$$

 *****  WEATHER ACROSS CENTRAL AND WESTERN NORTH DAKOTA  *****

CITY           SKY/WX    TMP DP  RH WIND       PRES   REMARKS
JAMESTOWN      CLOUDY    39  34  82 W10       29.39F
BISMARCK       CLOUDY    38  32  79 W12       29.44S
MINOT          CLOUDY    39  30  70 W18G26    29.33R
MINOT AFB      CLOUDY    38  33  82 W16       29.32R
GARRISON         N/A     39  31  72 W17       29.37R
WILLISTON      MOCLDY    29  17  61 W26G40    29.44R WCI  14
DICKINSON      CLOUDY    36  28  73 W26G32    29.44R
HETTINGER      PTCLDY    34  28  79 W23G31    29.50S WCI  22
$$

 *****  OTHER OBSERVATIONS NORTHEAST NORTH DAKOTA  *****

CITY           SKY/WX    TMP DP  RH WIND       PRES   REMARKS
WALHALLA         N/A     32  32 100 SW6       29.32R
LANGDON        FAIR      32  28  86 SW14      29.31R WCI  22
CAVALIER       PTSUNNY   30  28  93 S8        29.33S FOG     WCI  23
GRAFTON        FAIR      32  32 100 S9        29.35S WCI  24
CANDO          CLOUDY    34  30  86 SW8       29.33R
FORT TOTTEN    NOT AVBL
ROLLA          PTSUNNY   28  28 100 S5        29.31R WCI  23
RUGBY          CLOUDY    37  32  81 SW13      29.33R
 ***** THE ABOVE OBSERVATIONS ARE NON NWS ARE NOT QUALITY
        CONTROLLED AND MAY MIS-REPORT RAIN FOR SNOW...
$$

 *****  OTHER OBSERVATIONS SOUTHEAST NORTH DAKOTA *****

CITY           SKY/WX    TMP DP  RH WIND       PRES   REMARKS
COOPERSTOWN    NOT AVBL
VALLEY CITY    LGT RAIN  37  37 100 NW10G18   29.38S
OAKES          LGT RAIN  36  36 100 W12       29.41R
GWINNER        CLOUDY    37  36  93 SW12      29.39F
SHEYENNE NWR     N/A     36  33  90 SW3       29.95
BUFFALO        NOT AVBL
WYNDMERE         N/A     36  34  93 W3          N/A
 ***** THE ABOVE OBSERVATIONS ARE NON NWS ARE NOT QUALITY
       CONTROLLED AND MAY MIS-REPORT RAIN FOR SNOW...
$$

  *****  WEATHER ACROSS NORTHERN MINNESOTA  *****

CITY           SKY/WX    TMP DP  RH WIND       PRES   REMARKS
FLAG ISLAND    CLOUDY    32  30  93 S13       29.37R FOG     WCI  22
WARROAD        CLOUDY    34  30  86 SE7       29.37S FOG
ROSEAU         CLOUDY    34  30  86 S7        29.36S FOG
HALLOCK        CLOUDY    34  32  93 S9        29.34S FOG
THF RVR FALLS  CLOUDY    34  32  93 SW9       29.37S
HALSTAD          N/A     32  30  92 SW8         N/A  WCI  25
FOSSTON        CLOUDY    32  30  93 S9        29.38R FOG     WCI  24
BAUDETTE       CLOUDY    33  32  96 S5        29.38R FOG
WASKISH        CLOUDY    34  32  93 CALM      29.38S FOG
CROOKSTON      CLOUDY    34  32  93 S10       29.38R FOG
$$
  *****  WEATHER ACROSS CENTRAL AND WEST MINNESOTA  *****

CITY           SKY/WX    TMP DP  RH WIND       PRES   REMARKS
BEMIDJI        SNOW      32  32 100 S3        29.37F VSB 1/2
PARK RAPIDS    CLOUDY    33  33 100 SW6       29.37S FOG
WADENA         CLOUDY    34  34 100 SW3       29.38S FOG
DETROIT LAKES    N/A     34  34 100 CALM      29.39S FOG
MOORHEAD       CLOUDY    32  32 100 S3        29.40S FOG
FERGUS FALLS   CLOUDY    34  32  93 W5        29.42S
ELBOW LAKE       N/A     34  32  92 NW5       29.39F
MORRIS MN        N/A     37  32  81 N6        29.38S
STAPLES        FOG       34  34 100 CALM      29.39R VSB 1/2
WHEATON        CLOUDY    32  30  93 CALM      29.40F
$$
  *****  WEATHER ELSEWHERE ACROSS MINNESOTA  *****

CITY           SKY/WX    TMP DP  RH WIND       PRES   REMARKS
DULUTH         DRZL/FOG  35  33  92 E6        29.40F VSB 1/4
INTRNTL FALLS  FOG       32  31  96 SE3       29.40F VSB 3/4
ELY            CLOUDY    34  34 100 SE5       29.40F FOG
CLOQUET        FOG       36  34  93 SE3       29.39F VSB<1/4
BRAINERD       FOG       34  34 100 SW7       29.40R VSB 1
HIBBING        FOG       35  33  92 SE3       29.38F VSB 1/2
ALEXANDRIA     CLOUDY    35  32  88 W6        29.40R
SAINT CLOUD    CLOUDY    37  36  96 S6        29.41S FOG
MINNEAPOLIS    CLOUDY    50  48  93 S5        29.44S
$$

  *****  WEATHER ACROSS SOUTH DAKOTA  *****

CITY           SKY/WX    TMP DP  RH WIND       PRES   REMARKS
SIOUX FALLS    MOCLDY    41  40  96 VRB5      29.43R FOG
BROOKINGS      NOT AVBL
WATERTOWN      MOCLDY    37  32  82 NW10      29.41R
HURON          CLOUDY    35  32  88 NW7       29.47R
SISSETON         N/A     41  35  79 NW8       29.39R
ABERDEEN       CLOUDY    40  34  79 W21G29    29.44R
MITCHELL       MOCLDY    36  32  85 NW12      29.47R
PIERRE         CLOUDY    38  35  89 W9        29.52S
MOBRIDGE       CLOUDY    39  33  79 W9        29.48R
RAPID CITY     MOCLDY    34  21  59 NW15      29.62R WCI  24
$$

  *****  SOME WEATHER IN NEARBY STATES *****

CITY           SKY/WX    TMP DP  RH WIND       PRES   REMARKS
GLASGOW MT     CLOUDY    29  20  69 NW28G43   29.59R WCI  14
GREAT FALLS MT CLOUDY    31  19  61 W10       29.79R WCI  22
CHEYENNE WY    CLOUDY    29  22  75 N10       29.68S WCI  20
SCOTTSBLUFF NE MOCLDY    30  24  78 NW7       29.70R WCI  23
OMAHA NE       CLOUDY    52  51  97 S13       29.48F
DES MOINES IA  DRIZZLE   54  50  86 S10       29.55F
DAVENPORT IA   CLOUDY    51  47  86 S16       29.67F
CHICAGO IL     CLOUDY    49  43  80 S13       29.76F
EAU CLAIRE WI  CLOUDY    46  45  96 S10       29.50S
LA CROSSE WI   CLOUDY    51  48  89 S15       29.55F FOG
$$

  *****  SOME NATIONAL WEATHER *****

CITY           SKY/WX    TMP DP  RH WIND       PRES   REMARKS
LA GUARDIA NY  CLOUDY    44  22  41 SW9       30.19R
RALEIGH NC     CLOUDY    39  30  70 CALM      30.27S
ATLANTA GA     LGT RAIN  47  46  97 E18       30.05F FOG
NEW ORLEANS LA LGT RAIN  63  60  90 E12       29.72F FOG
OKLAHOMA CITY  CLOUDY    55  52  89 S18       29.51F
ALBUQUERQUE NM PTCLDY    46  17  31 W15       29.79S
SALT LAKE CITY MOCLDY    37  24  59 W26G38    30.03R
LOS ANGELES CA PTCLDY    60  53  77 NE9       30.05S
BOISE ID       PTCLDY    31  26  82 CALM      30.21R
SEATTLE WA     LGT RAIN  47  43  86 S17       30.16S
$$

*** WEATHER ACROSS MANITOBA...SASKATCHEWAN AND ONTARIO ***
                ***ONTARIO***

CITY           SKY/WX    TMP DP  RH WIND       PRES   REMARKS
GERALDTON      CLOUDY    27  27 100 E7        29.63F WCI  19
THUNDER BAY    CLOUDY    37  34  87 E7        29.51F
SIOUX LOOKOUT  CLOUDY    32  30  93 SE3       29.43F
TORONTO        MOCLDY    43  39  87 SW7       29.96R
BIG TROUT LK   MOCLDY    -2  -6  84 E7        29.77S WCI -16
PICKLE LAKE    LGT SNOW  18  14  86 E8        29.57  WCI   7
DRYDEN         CLOUDY    34  32  93 S13G18    29.41F WCI  25
KENORA         CLOUDY    32  30  93 S10       29.38R WCI  24
$$
                *** MANITOBA***

CITY           SKY/WX    TMP DP  RH WIND       PRES   REMARKS
BRANDON        FOG       23  21  93 NE12      29.32R VSB 1/2 WCI  12
DAUPHIN        NOT AVBL
ISLAND LAKE    PTCLDY     5   1  85 NE8       29.69S WCI  -8
PILOT MOUND      N/A     28  27  93 SW7         N/A  WCI  21
THE PAS        CLOUDY     1  -2  85 NE8G18    29.74R WCI -12
THOMPSON       NOT AVBL
WINNIPEG       CLOUDY    32  30  93 S14       29.32S FOG     WCI  22
LYNN LAKE      CLEAR    -22 -27  76 NW5       29.86R WCI -36
CHURCHILL      CLEAR    -15 -20  76 NW15      29.90R WCI -38
GILLAM         CLEAR    -22 -27  76 W3        29.89R
$$
                ***SASKATCHEWAN***

CITY           SKY/WX    TMP DP  RH WIND       PRES   REMARKS
ESTEVAN        FLURRIES  25  19  80 W21G30    29.30R WCI  10
KINDERSLEY     LGT SNOW  19  18  93 NW10      29.69R WCI   8
LLOYDMINSTER   FLURRIES  14  12  92 NW5       29.69R WCI   6
PRINCE ALBERT  FLURRIES  10   5  79 N12       29.72R WCI  -4
REGINA         FLURRIES  18  14  86 N22G31    29.47R WCI   0


USA.gov is the U.S. government's official web portal to all federal, state and local government web resources and services.